CAPE
0 0 0 0 0 0 0 0 0 0 0 0 0 0 0 0 0 0 0 0 0 0 0 6 3 1 4 6 8 10 8 11 7 15 28 35 44 47 38 38 20 6 5
0 0 0 0 0 0 0 0 0 0 0 0 0 0 0 0 0 0 0 0 0 0 0 1 0 0 1 3 8 8 11 10 10 11 21 21 25 49 49 41 33 19 3
0 0 0 0 0 0 0 0 0 0 0 0 0 0 0 0 0 0 0 0 0 0 0 0 0 0 0 0 3 7 9 13 9 10 19 16 17 25 37 45 35 26 11
0 0 0 0 0 0 0 0 0 0 0 0 0 0 0 0 0 0 0 0 0 0 0 0 0 0 0 0 0 6 9 7 9 13 12 13 10 14 30 32 26 21 13
0 0 0 0 0 0 0 0 0 0 0 0 0 0 0 0 0 0 0 0 0 0 0 0 0 0 0 0 0 1 3 3 6 11 7 23 6 8 23 60 37 16 23
0 0 0 0 0 0 0 0 0 0 0 0 0 0 0 0 0 0 0 0 0 0 0 0 0 0 0 0 0 0 0 0 4 4 10 8 8 17 12 23 39 18 12
0 0 0 0 0 0 0 0 0 0 0 0 0 0 0 0 0 0 0 0 0 0 0 0 0 0 0 0 0 0 0 0 1 4 8 12 12 15 14 18 24 23 25
0 0 0 0 0 0 0 0 0 0 0 0 0 0 0 0 0 0 0 0 0 0 0 0 0 0 0 0 0 0 0 0 2 19 21 16 17 20 12 23 27 15 28
0 0 0 0 0 0 0 0 0 0 0 0 0 0 0 0 0 0 0 0 0 0 0 0 0 0 0 0 0 0 0 0 0 16 15 51 41 34 20 47 65 68 52
0 0 0 0 0 0 0 0 0 0 0 0 0 0 0 0 0 0 0 0 0 0 0 0 0 0 0 0 0 0 0 6 11 20 23 15 27 70 83 79 75 69 53
0 0 0 0 0 0 0 0 0 0 0 0 0 0 0 0 0 0 0 0 0 0 0 0 0 0 0 0 0 0 0 0 0 7 17 27 22 59 89 100 77 62 46
0 0 0 0 0 0 0 0 0 0 0 0 0 0 0 0 0 0 0 0 0 0 0 0 0 0 0 0 0 0 0 0 0 0 2 11 20 35 45 68 71 76 72
0 0 0 0 0 0 0 0 0 0 0 0 0 0 0 0 0 0 0 0 0 0 0 0 0 0 0 0 0 0 0 0 0 0 0 9 13 20 24 17 21 31 29
0 0 0 0 0 0 0 0 0 0 0 0 0 0 0 0 0 0 0 0 0 0 0 0 0 0 0 0 0 0 0 0 0 0 1 0 7 16 28 27 26 32 27
0 0 0 0 0 0 0 0 0 0 0 0 0 0 0 0 0 0 0 0 0 0 0 0 0 0 0 0 0 0 0 0 0 0 1 0 0 0 0 0 5 6 10
0 0 0 0 0 0 0 0 0 0 0 0 0 0 0 0 0 0 0 0 0 0 0 0 0 0 0 0 0 0 0 0 0 0 0 0 0 0 2 3 19 17 26
0 0 0 0 0 0 0 0 0 0 0 0 0 0 0 0 0 0 0 0 0 0 0 0 0 0 0 0 0 0 0 0 0 0 0 0 3 4 4 8 17 4 8
0 0 0 0 0 0 0 0 0 0 0 0 0 0 0 0 0 0 0 0 0 0 0 0 0 0 0 0 0 0 0 0 0 0 0 0 0 0 16 20 33 19 18
0 0 0 0 0 0 0 0 0 0 0 0 0 0 0 0 0 0 0 0 0 0 0 0 0 0 0 0 0 0 0 0 0 0 0 0 0 0 3 24 23 4 3
0 0 0 0 0 0 0 0 0 0 0 0 0 0 0 0 0 0 0 0 0 0 0 0 0 0 0 0 0 0 0 0 0 0 0 0 0 0 0 0 0 2 0
0 0 0 0 0 0 0 0 0 0 0 0 0 0 0 0 0 0 0 0 0 0 0 0 0 0 0 0 0 0 0 0 0 0 0 0 0 0 0 0 0 1 7
0 0 0 0 0 0 0 0 0 0 0 0 0 0 0 0 0 0 0 0 0 0 0 0 0 0 0 0 0 0 0 2 6 0 0 0 0 0 0 0 0 1 5
0 0 0 0 0 0 0 0 0 0 0 0 0 0 0 0 0 0 0 0 0 0 0 0 0 0 0 0 0 0 0 0 1 0 0 0 0 0 0 0 0 1 3
0 0 0 0 0 0 0 0 0 0 0 0 0 0 0 0 0 0 0 0 0 0 0 0 0 0 0 0 0 0 0 0 3 0 0 1 0 0 0 0 0 0 7
0 0 0 0 0 0 0 0 0 0 0 0 0 0 0 0 0 0 0 0 0 0 0 0 4 11 8 35 36 0 0 0 0 0 0 0 0 0 0 0 0 2 13
0 0 0 0 0 0 0 0 0 0 0 0 0 0 0 0 0 0 0 0 0 0 0 0 0 0 0 0 6 0 0 0 1 0 0 15 0 0 0 0 0 2 0
CIN
0 0 0 0 0 0 0 0 0 0 0 0 0 0 0 0 0 0 0 0 0 0 0 0 0 0 0 0 0 0 0 0 0 0 0 0 0 0 0 0 0 0 0
0 0 0 0 0 0 0 0 0 0 0 0 0 0 0 0 0 0 0 0 0 0 0 0 0 0 0 0 0 0 0 0 0 0 0 0 0 0 0 0 0 0 0
0 0 0 0 0 0 0 0 0 0 0 0 0 0 0 0 0 0 0 0 0 0 0 0 0 0 0 0 0 0 0 0 0 0 -1 0 0 0 0 0 0 0 0
0 0 0 0 0 0 0 0 0 0 0 0 0 0 0 0 0 0 0 0 0 0 0 0 0 0 0 0 0 0 0 0 0 0 0 -1 0 0 0 0 0 0 0
0 0 0 0 0 0 0 0 0 0 0 0 0 0 0 0 0 0 0 0 0 0 0 0 0 0 0 0 0 0 0 0 0 0 0 -1 0 0 0 0 0 0 0
0 0 0 0 0 0 0 0 0 0 0 0 0 0 0 0 0 0 0 0 0 0 0 0 0 0 0 0 0 0 0 0 0 0 0 0 -1 0 0 0 -1 -1 -1
0 0 0 0 0 0 0 0 0 0 0 0 0 0 0 0 0 0 0 0 0 0 0 0 0 0 0 0 0 0 0 0 0 0 0 0 0 0 0 0 0 0 0
0 0 0 0 0 0 0 0 0 0 0 0 0 0 0 0 0 0 0 0 0 0 0 0 0 0 0 0 0 0 0 0 0 0 0 0 0 0 0 0 0 -1 -1
0 0 0 0 0 0 0 0 0 0 0 0 0 0 0 0 0 0 0 0 0 0 0 0 0 0 0 0 0 0 0 0 0 0 0 0 -1 0 -1 0 0 0 0
0 0 0 0 0 0 0 0 0 0 0 0 0 0 0 0 0 0 0 0 0 0 0 0 0 0 0 0 0 0 0 -6 0 0 0 0 0 0 0 0 0 0 0
0 0 0 0 0 0 0 0 0 0 0 0 0 0 0 0 0 0 0 0 0 0 0 0 0 0 0 0 0 0 0 0 0 0 0 0 0 0 0 0 0 0 0
0 0 0 0 0 0 0 0 0 0 0 0 0 0 0 0 0 0 0 0 0 0 0 0 0 0 0 0 0 0 0 0 0 0 0 0 0 0 0 0 0 0 0
0 0 0 0 0 0 0 0 0 0 0 0 0 0 0 0 0 0 0 0 0 0 0 0 0 0 0 0 0 0 0 0 0 0 0 0 0 0 0 0 0 0 0
0 0 0 0 0 0 0 0 0 0 0 0 0 0 0 0 0 0 0 0 0 0 0 0 0 0 0 0 0 0 0 0 0 0 0 0 0 0 0 0 0 0 0
0 0 0 0 0 0 0 0 0 0 0 0 0 0 0 0 0 0 0 0 0 0 0 0 0 0 0 0 0 0 0 0 0 0 0 0 0 0 0 0 0 0 0
0 0 0 0 0 0 0 0 0 0 0 0 0 0 0 0 0 0 0 0 0 0 0 0 0 0 0 0 0 0 0 0 0 0 0 0 0 0 0 0 0 0 0
0 0 0 0 0 0 0 0 0 0 0 0 0 0 0 0 0 0 0 0 0 0 0 0 0 0 0 0 0 0 0 0 0 0 0 0 0 0 0 0 0 0 0
0 0 0 0 0 0 0 0 0 0 0 0 0 0 0 0 0 0 0 0 0 0 0 0 0 0 0 0 0 0 0 0 0 0 0 0 0 0 0 0 0 0 0
0 0 0 0 0 0 0 0 0 0 0 0 0 0 0 0 0 0 0 0 0 0 0 0 0 0 0 0 0 0 0 0 0 0 0 0 0 0 0 0 0 0 0
0 0 0 0 0 0 0 0 0 0 0 0 0 0 0 0 0 0 0 0 0 0 0 0 0 0 0 0 0 0 0 0 0 0 0 0 0 0 0 0 0 0 0
0 0 0 0 0 0 0 0 0 0 0 0 0 0 0 0 0 0 0 0 0 0 0 0 0 0 0 0 0 0 0 0 0 0 0 0 0 0 0 0 0 0 0
0 0 0 0 0 0 0 0 0 0 0 0 0 0 0 0 0 0 0 0 0 0 0 0 0 0 0 0 0 0 0 0 0 0 0 0 0 0 0 0 0 0 0
0 0 0 0 0 0 0 0 0 0 0 0 0 0 0 0 0 0 0 0 0 0 0 0 0 0 0 0 0 0 0 0 -1 -1 -1 -3 0 0 0 0 0 0 0
0 0 0 0 0 0 0 0 0 0 0 0 0 0 0 0 0 0 0 0 0 0 0 0 0 0 0 0 0 0 0 0 -1 -1 0 -1 0 0 0 0 0 0 0
0 0 0 0 0 0 0 0 0 0 0 0 0 0 0 0 0 0 0 0 0 0 0 0 -6 -2 0 0 -1 -5 0 0 -1 -1 0 0 -1 0 0 0 0 -1 0
0 0 0 0 0 0 0 0 0 0 0 0 0 0 0 0 0 0 0 0 0 0 0 0 0 0 0 0 -13 0 0 0 0 0 -16 -4 0 -4 -1 0 0 -18 0
Wind_Speed
5 4 4 4 4 3 4 5 5 5 6 6 5 5 5 4 3 2 2 6 7 9 9 11 12 12 11 12 13 13 12 13 12 12 12 12 12 11 9 9 9 10 11
5 5 4 4 4 3 3 4 4 4 4 4 5 5 4 4 4 2 1 2 4 6 7 10 11 12 11 12 12 12 12 11 13 12 12 11 12 12 11 9 9 10 11
6 6 4 4 3 3 5 5 4 4 5 4 4 4 3 3 3 2 1 1 2 4 4 7 10 11 12 12 12 13 12 12 11 12 11 11 12 12 12 9 9 10 12
7 5 5 4 3 4 4 4 4 4 4 4 3 3 3 2 3 3 3 1 1 2 3 5 7 10 11 13 12 13 14 10 10 11 12 12 11 11 12 11 10 10 12
6 6 4 4 4 4 4 3 4 3 3 4 3 3 3 2 2 2 4 3 2 0 1 5 9 8 9 12 13 13 14 11 10 11 11 12 12 13 14 13 9 10 14
6 5 4 5 5 4 4 4 5 4 2 3 3 4 4 2 4 3 3 3 4 4 4 5 5 5 10 11 12 13 12 12 10 9 10 11 11 12 14 15 11 11 13
6 6 4 5 5 5 4 4 2 5 5 5 3 3 3 4 4 4 3 4 5 5 5 5 4 4 4 12 12 11 11 13 12 9 9 12 11 12 11 13 14 14 14
6 6 5 5 5 4 6 5 5 2 3 5 3 1 4 5 4 4 2 4 6 4 5 7 6 6 5 4 6 9 9 12 12 12 12 13 12 13 13 13 14 14 13
6 6 6 5 6 4 4 4 4 5 3 4 7 2 3 1 3 3 2 3 6 5 5 5 7 6 7 5 6 7 10 10 13 12 13 15 15 15 16 15 15 14 14
6 6 5 6 6 3 5 4 4 3 3 3 2 3 3 1 1 5 3 3 5 5 5 5 6 6 7 6 9 9 13 14 14 14 15 16 16 18 17 17 15 16 18
8 5 5 6 6 3 4 5 5 5 3 3 2 2 3 3 3 1 4 4 3 3 4 4 5 4 5 5 5 7 12 15 15 16 17 18 18 18 20 20 18 16 17
5 5 6 6 5 4 4 4 4 6 4 4 2 2 2 1 2 1 2 4 7 3 3 4 5 5 6 4 9 14 14 17 17 17 17 19 20 20 19 20 22 21 20
4 5 5 5 4 4 5 5 5 5 5 4 3 2 1 1 1 2 2 3 3 4 4 3 3 4 5 5 7 12 12 17 19 23 22 21 20 21 20 22 22 22 22
5 6 7 5 6 5 4 5 4 4 4 4 5 3 1 2 1 1 2 2 5 2 2 5 4 4 4 5 8 14 7 14 19 19 21 22 20 18 18 19 22 24 24
5 7 7 7 5 5 5 6 4 4 5 3 3 3 2 2 2 2 1 2 2 4 6 3 2 4 7 6 7 7 6 11 15 15 17 20 21 24 24 23 22 22 24
6 8 7 7 5 5 6 6 4 4 5 3 3 5 3 2 4 3 3 2 1 3 5 1 3 4 5 8 12 11 7 10 12 14 19 21 22 21 21 22 20 20 22
7 7 7 7 5 5 6 5 4 4 3 3 3 4 6 5 4 4 3 3 3 3 7 4 3 4 4 6 8 9 10 6 4 15 19 20 19 20 22 22 21 22 22
6 7 6 6 6 5 4 3 2 2 1 3 5 5 6 5 6 5 4 6 4 4 4 11 3 3 4 6 6 7 7 7 7 15 22 21 21 21 21 22 23 21 22
6 6 6 5 4 3 1 0 1 3 3 3 5 5 6 6 6 5 5 5 4 5 5 5 6 3 4 4 4 5 5 6 5 13 18 20 21 20 20 20 21 23 24
6 6 4 4 2 1 2 2 3 3 4 5 5 5 6 6 6 6 7 7 6 5 5 5 5 4 4 4 3 5 7 6 8 9 12 14 17 18 21 22 20 20 22
5 5 4 2 2 2 2 4 4 5 6 6 6 6 6 7 13 13 8 6 6 5 4 4 4 3 4 6 8 7 8 7 7 7 7 5 4 8 8 14 15 19 22
5 4 3 3 4 3 7 10 9 5 6 6 6 7 6 10 10 16 18 20 15 7 5 3 3 4 5 5 5 6 6 8 10 4 1 7 4 8 7 7 16 22 23
3 2 2 3 5 6 10 13 14 6 6 6 7 7 7 7 11 6 14 18 15 18 16 6 5 5 5 4 7 7 6 7 10 9 4 10 5 7 6 8 19 25 24
1 1 3 3 4 6 12 15 17 7 6 7 8 8 8 9 9 9 7 8 9 8 7 6 6 6 6 7 7 6 7 8 10 10 3 7 2 6 6 7 20 23 21
2 3 3 5 5 7 14 15 15 6 6 7 7 7 8 8 13 16 9 7 8 9 8 13 15 18 20 20 15 5 5 6 10 9 3 4 3 4 6 10 7 17 18
3 3 5 4 8 6 13 16 15 5 6 6 6 7 14 14 18 18 9 6 7 9 6 7 7 10 10 8 13 5 4 7 9 6 1 3 6 3 6 4 3 7 5
Wind_Direction
106 105 89 74 64 57 54 44 40 43 40 34 42 62 79 117 94 90 52 72 63 55 46 36 34 29 24 18 10 12 15 5 6 359 359 6 11 5 10 5 7 11 6
114 105 94 78 61 63 56 63 54 46 44 31 28 25 68 95 149 124 107 46 75 50 35 24 20 21 17 8 9 6 1 5 356 357 348 354 351 357 8 11 11 8 5
116 121 110 92 76 60 68 52 41 41 40 15 38 20 30 92 108 112 154 157 22 23 26 15 8 9 11 4 355 357 2 353 353 346 344 349 344 339 340 353 353 352 352
121 117 111 96 102 79 66 57 38 34 22 17 352 358 10 19 95 111 108 77 142 34 5 342 341 355 357 357 353 348 346 348 344 339 338 344 342 334 336 325 329 343 340
120 115 108 103 91 82 75 62 44 58 23 356 351 10 4 39 23 47 34 39 125 158 316 328 345 338 341 340 347 343 345 347 338 334 334 341 339 336 335 336 342 341 330
115 105 94 92 92 73 49 55 72 35 33 339 5 25 17 33 37 8 13 15 8 342 349 357 342 330 336 340 342 340 347 337 329 326 329 328 335 336 332 323 330 339 328
110 111 102 89 80 79 70 53 68 46 13 357 32 3 15 26 14 30 41 34 21 11 18 6 341 338 331 335 339 333 343 342 333 323 314 318 331 325 327 324 321 323 325
113 108 105 93 93 95 65 46 42 49 16 19 79 80 19 336 360 12 41 31 36 13 14 356 355 342 333 318 315 330 335 344 341 328 317 314 313 316 321 315 318 323 323
93 106 109 105 94 81 89 82 67 55 50 6 37 99 34 318 328 330 331 24 18 6 358 353 347 341 331 323 327 325 321 328 342 333 325 318 312 308 308 320 321 326 324
80 89 80 100 90 102 86 73 73 86 88 50 353 27 46 125 48 331 328 354 1 357 342 340 337 340 339 334 345 351 346 339 331 336 332 326 317 310 305 305 319 327 331
110 91 96 83 92 77 80 93 78 68 66 80 53 10 14 26 57 36 291 318 332 326 319 326 318 327 339 354 349 357 352 349 340 329 325 321 319 318 312 310 309 314 314
100 102 101 95 105 101 87 78 79 78 81 88 81 71 78 8 346 283 288 321 309 303 293 310 322 328 326 338 332 338 341 341 340 328 319 315 314 313 316 320 318 314 307
115 116 109 106 87 90 87 91 80 71 59 67 52 34 44 297 250 233 214 256 262 283 303 295 286 303 321 330 326 325 332 330 334 328 322 321 323 319 313 312 310 303 302
120 120 104 102 106 99 87 79 76 76 74 68 49 38 358 318 319 287 293 309 309 268 278 275 306 322 316 312 309 317 314 323 325 324 322 322 331 329 320 316 313 313 306
107 110 112 104 88 87 75 74 64 56 61 45 27 10 346 326 338 313 264 208 236 308 301 283 316 311 322 317 304 303 304 312 323 328 327 323 320 318 314 310 308 305 300
106 108 106 106 100 82 75 70 57 46 50 22 28 354 348 317 319 318 317 302 254 248 285 274 263 285 308 314 313 316 298 295 307 318 317 316 315 312 310 314 313 318 313
117 108 113 104 97 78 69 65 42 46 30 6 0 349 323 320 312 317 316 299 282 266 287 291 259 279 288 293 301 305 305 293 271 313 316 315 315 313 311 308 312 310 311
104 112 106 111 100 87 82 71 21 338 305 337 331 336 313 326 312 299 291 288 270 269 257 298 275 262 263 287 287 292 297 301 310 313 319 314 317 313 309 311 308 311 312
107 108 106 100 93 90 97 67 302 301 282 306 305 301 295 307 303 298 295 288 281 286 271 280 291 254 251 270 291 294 287 283 283 292 304 308 310 312 318 319 317 314 312
124 109 101 95 73 20 345 322 331 317 289 280 279 275 276 277 279 288 293 283 283 270 274 274 282 273 258 276 275 294 300 295 296 295 294 294 296 306 308 306 306 301 301
113 112 97 58 8 341 322 334 309 282 272 278 272 265 267 265 286 299 297 284 277 270 270 269 272 272 295 314 307 303 296 297 292 278 279 290 302 303 294 301 299 297 302
110 110 70 24 344 325 314 307 302 270 267 259 266 278 278 287 283 289 300 300 296 286 265 249 252 271 284 288 296 292 294 306 306 248 287 288 265 279 288 284 287 304 303
102 59 2 339 311 302 300 308 306 283 268 267 268 269 274 276 285 279 292 298 298 297 292 273 249 251 268 278 287 286 288 285 290 291 282 291 293 286 286 289 302 307 307
114 299 284 271 268 286 313 324 318 298 282 268 264 260 258 264 261 275 273 277 280 277 278 277 247 256 250 261 246 264 279 283 288 297 260 278 285 283 287 290 298 300 302
212 243 252 300 314 303 310 314 313 295 273 263 259 251 251 253 266 285 290 275 287 286 289 287 285 287 295 294 297 307 301 300 302 303 242 265 294 288 286 292 280 297 305
278 316 313 294 291 282 294 301 311 298 287 289 285 268 277 286 283 290 289 275 278 285 269 280 285 288 283 282 293 275 263 283 290 295 252 282 301 308 303 262 274 288 278